Location: Unspecified
(0.0000°N, 0.0000°E)
Time: 05:54:54
(UTC+01:00)

Daily predictions for brighter satellites

Satellite Brightness Start Highest point End
(mag) Time Altitude Azimuth Time Altitude Azimuth Time Altitude Azimuth
CZ-3 R/B 4.4 01:26:34 10° WSW 02:53:46 69° NNE 03:05:40 10° NE
Centaur D-1A AC-31 4.1 03:44:54 21° S 03:44:54 21° S 03:51:28 10° SE
Atlas Centaur 2 3.9 03:55:08 41° ENE 03:55:08 41° ENE 04:00:17 10° ENE
SL-16 R/B 4.2 03:45:51 10° SSE 03:48:36 27° SSE 03:48:36 27° SSE
ARIANE 5 R/B 4.1 03:24:55 10° W 04:06:44 27° ENE 04:08:26 10° ENE
Cosmos 1844 Rocket 4.4 04:08:36 28° SSE 04:08:36 28° SSE 04:11:10 10° SSE
NOSS 3-3 (A) 4.4 04:33:56 75° W 04:34:11 76° WSW 04:42:12 10° SSE
NOSS 3-3 (C) 4.4 04:34:00 76° W 04:34:18 77° WSW 04:42:18 10° SSE
Cosmos 1844 4.2 04:37:23 52° S 04:37:23 52° S 04:41:42 10° SSE
USA 229 DEB 3.8 04:31:21 10° SSW 04:38:13 70° ESE 04:45:02 10° NNE
USA 229 3.9 04:31:28 10° SSW 04:38:19 69° ESE 04:45:08 10° NNE
SL-24 R/B - RUBIN 2 4.5 04:40:07 55° ESE 04:40:07 55° ESE 04:44:09 10° SSE
USA 234 3.4 04:36:03 10° SSE 04:42:20 58° SW 04:42:20 58° SW
ADEOS II 2.1 04:46:28 74° SSE 04:46:28 74° SSE 04:51:22 10° S
Ariane H10 3.2 04:46:19 58° N 04:46:22 58° N 05:02:23 10° E
Cosmos 2278 Rocket 2.2 04:49:19 68° NNE 04:49:53 74° ENE 04:55:32 10° SSE
Cosmos 2074 Rocket 4.3 04:44:11 10° S 04:50:26 66° E 04:56:38 10° NNE
ARIANE 5 R/B 3.1 04:53:58 35° E 04:53:58 35° E 04:57:45 10° E
ARIANE 5 R/B 4.4 04:03:40 10° W 04:54:13 85° S 04:58:54 10° E
Okean-O 3.2 04:54:29 41° NE 04:55:42 56° ESE 05:00:04 10° S
Delta 2 Rocket 3.9 04:53:48 47° SW 04:55:47 81° SSE 05:01:51 10° ENE
BREEZE-M DEB (TANK) 3.5 04:59:17 57° NNE 04:59:17 57° NNE 05:05:58 10° NE
Feng Yun 1-1 Rocket 4.4 04:56:18 10° NNE 05:01:40 69° ESE 05:07:01 10° S
OAO 2 Rocket 3.3 05:02:00 63° NNE 05:02:12 64° NE 05:07:09 10° ESE
GPS 2-04 Rocket1 4.3 05:08:14 24° NE 05:08:14 24° NE 05:09:53 10° NE
ARIANE 5 R/B 2.8 05:05:02 52° W 05:06:22 87° S 05:09:14 10° E
GOES 2 Rocket 4.3 05:05:00 43° NNW 05:07:10 60° NNE 05:12:57 10° ESE
Cosmos 2184 Rocket 3.8 05:04:31 10° S 05:10:41 81° W 05:16:50 10° N
Meteor 1-25 Rocket 4.5 05:06:29 10° SSW 05:11:50 47° W 05:11:50 47° W
Iridium 2 3.7 05:09:38 10° S 05:13:27 76° E 05:13:53 65° NE
Meteor 1-11 Rocket 4.3 05:16:23 10° S 05:22:15 62° E 05:28:00 10° NNE
Cosmos 1602 4.1 05:20:22 10° S 05:24:15 63° E 05:28:09 10° NNE
Ariane H10 3.6 05:22:49 37° NNW 05:24:17 50° NNE 05:39:58 10° E
Cosmos 2154 Rocket 4.4 05:20:48 10° S 05:26:58 63° E 05:33:05 10° NNE
ARIANE 5 R/B 3.7 05:27:05 31° WNW 05:29:34 56° NNW 05:33:03 10° ENE
Cosmos 972 Rocket 4.5 05:32:10 33° W 05:32:45 35° W 05:37:18 10° SSW
Ariane H10+ 3.0 05:24:28 19° W 05:33:12 58° SSW 05:37:23 10° ESE
ARIANE 5 DEB (SYLDA) 3.9 05:30:01 28° W 05:33:22 81° N 05:56:49 10° E
Cosmos 1238 Rocket 4.3 05:27:50 10° N 05:34:05 72° E 05:40:51 10° S
NOAA 6 4.1 05:29:12 10° NNE 05:34:20 81° ESE 05:39:31 10° S
Cosmos 1812 3.1 05:34:21 10° N 05:38:10 65° E 05:42:01 10° SSE
Thor Agena Rocket 4.4 05:35:42 10° SSE 05:40:33 48° ENE 05:45:22 10° N
Cosmos 1975 Rocket 3.8 05:40:19 30° WNW 05:40:57 31° W 05:44:56 10° SSW
Atlas Centaur 2 3.7 05:37:53 24° WNW 05:41:49 34° NNW 05:49:06 10° NNE
Cosmos 1048 Rocket 4.2 05:44:56 10° S 05:50:01 71° ESE 05:55:06 10° NNE
Hubble Space Telescope 3.6 05:48:15 10° SSW 05:50:58 17° SSE 05:53:42 10° ESE
Ariane 42P Rocket 4.2 05:47:38 21° W 05:51:02 84° N 06:18:25 10° E
Cosmos 921 Rocket 3.6 05:47:50 10° N 05:52:16 61° E 05:56:40 10° SSE
USA 116 4.1 05:49:22 10° SSE 05:53:00 64° ENE 05:57:08 10° N
ASTEX 1 4.3 05:49:28 10° SSW 05:53:35 27° W 05:56:08 18° NW
Cosmos 1943 4.4 05:53:15 10° WSW 05:57:08 19° WNW 06:01:01 10° NNW
NOSS 3-1 (C) 3.1 05:51:33 10° SSW 05:57:12 75° WNW 06:02:52 10° NNE
Okean 1 Rocket 3.4 05:53:18 10° SSW 05:57:31 42° W 06:01:40 10° NNW
Cosmos 1536 Rocket 3.5 05:53:25 10° N 05:57:46 86° W 06:02:07 10° S
OAO 3 Rocket 4.1 05:57:56 16° W 06:00:51 29° NW 06:05:05 10° NNE
Cosmos 1633 3.6 06:03:01 10° SW 06:06:08 26° W 06:09:16 10° NNW
CRYOSAT 2 4.4 06:03:14 10° S 06:08:07 87° E 06:12:59 10° N
Okean 1 3.3 06:05:24 10° NNW 06:09:20 61° W 06:13:17 10° S
Ariane Rocket 3.0 06:04:43 10° N 06:09:46 84° WNW 06:14:52 10° SSW
Meteor 1-31 Rocket 4.4 06:10:14 13° NW 06:11:36 15° W 06:13:48 10° WSW
ARIANE 5 R/B 1.7 06:11:43 13° W 06:13:40 69° N 06:20:56 10° E
Cosmos 1346 Rocket 2.8 06:10:24 10° NNW 06:14:20 69° W 06:18:22 10° S
Cosmos 1371 Rocket 4.1 06:13:37 10° N 06:18:50 86° E 06:24:01 10° SSE
SEDSat Delta rocket 4.5 06:13:49 10° WSW 06:20:01 42° NNW 06:26:23 10° NE
Cosmos 1461 4.0 06:16:45 10° SW 06:20:30 25° WNW 06:24:09 10° NNW
SWIFT 4.4 06:27:02 10° NNW 06:29:55 18° NNE 06:32:49 10° ENE
CZ-3 R/B 4.0 06:36:23 10° WNW 06:40:51 12° NW 06:44:01 10° NNW
